SCP
0 0 0 0 0 0 0 0 0 0 0 0 0 0 0 0 0 0 0 0 1 1 1 1 0 0 1 1 1 1 0 0 0 0 0 0 0 0 -0 -0 0 0 0
0 0 0 0 0 0 0 0 0 0 0 0 0 0 0 0 0 0 0 0 1 0 1 1 1 0 0 1 0 1 0 0 0 0 0 0 0 0 -0 -0 0 0 -0
0 0 0 0 0 0 0 0 0 0 0 0 0 0 0 0 0 0 0 0 0 0 0 0 1 0 0 0 0 1 0 0 0 0 0 0 0 0 -0 0 -0 0 0
0 0 0 0 0 0 0 0 0 0 0 0 0 0 0 0 0 0 0 0 0 0 0 0 0 0 0 0 0 0 0 0 0 0 0 0 0 0 0 -0 -0 -0 0
1 1 0 0 0 0 0 0 0 0 0 0 0 0 0 0 0 0 0 0 0 0 0 0 0 0 0 0 0 0 0 0 0 0 0 0 0 0 0 -0 -0 -0 -0
1 1 2 1 1 1 0 0 0 0 0 0 0 0 0 0 0 0 0 0 0 0 0 0 0 0 0 0 0 0 0 0 0 0 0 0 0 0 0 0 0 0 -0
1 2 1 2 1 1 1 0 0 0 0 0 0 0 0 0 0 0 0 0 0 0 0 0 0 0 0 0 0 0 0 0 0 0 0 0 0 0 0 0 0 0 0
2 2 2 2 2 1 1 0 0 0 0 0 0 0 0 0 0 1 0 0 0 0 0 0 0 0 0 0 0 0 0 0 0 0 0 0 0 0 0 0 0 0 0
1 3 2 2 2 2 2 1 0 0 0 0 1 0 0 0 0 0 0 0 0 0 0 0 0 0 0 0 0 0 0 0 0 0 0 0 0 0 0 0 0 0 0
1 1 1 1 2 1 1 0 0 0 0 0 0 0 0 0 0 0 0 0 0 0 0 0 0 0 0 0 0 0 0 0 0 0 0 0 0 0 0 0 0 0 0
3 2 1 1 2 1 1 0 0 1 1 1 1 0 0 0 0 0 0 -0 0 0 0 0 0 0 0 0 0 0 0 0 0 0 0 0 0 0 0 0 0 0 0
1 2 3 3 1 1 1 0 1 1 1 1 1 0 0 0 0 0 0 0 0 0 0 0 0 0 0 0 0 0 0 0 0 0 0 0 0 0 0 0 0 0 0
0 0 4 4 4 4 1 1 0 1 1 1 1 1 0 0 0 1 0 0 0 0 0 0 0 0 0 0 0 0 0 0 0 0 0 0 0 0 0 0 0 0 0
0 0 0 1 3 3 3 2 1 1 1 2 2 2 1 0 1 0 1 0 0 0 0 0 0 0 0 0 0 0 0 0 0 0 0 0 0 0 0 0 0 0 0
1 1 1 0 1 2 3 3 4 1 1 1 2 2 1 1 1 1 1 1 1 1 0 0 0 0 0 0 0 0 0 0 0 0 0 0 0 0 0 0 0 0 0
1 1 1 1 1 1 1 1 1 2 3 2 1 1 0 0 0 0 1 1 1 1 1 0 0 0 0 0 0 0 0 0 0 0 0 0 0 0 0 0 0 0 0
0 0 0 0 0 1 1 0 1 1 1 2 1 1 0 1 1 1 1 1 1 0 1 0 0 0 0 0 0 0 0 0 0 0 0 0 0 0 0 0 0 0 0
0 0 0 0 0 0 0 0 0 0 1 1 0 1 0 0 1 1 1 1 2 0 0 0 0 0 0 0 0 0 0 0 0 0 0 0 0 0 0 0 0 0 0
0 0 0 0 0 0 0 0 0 0 0 0 1 1 0 1 1 2 1 1 1 0 0 0 0 0 0 0 0 0 0 0 0 0 0 0 0 0 0 0 0 0 0
0 0 0 0 0 0 0 0 0 0 0 0 0 1 1 2 1 2 2 2 1 0 0 0 0 0 0 0 0 0 0 0 0 0 0 0 0 0 0 0 0 0 0
0 0 0 0 0 0 0 0 0 0 0 0 0 1 2 2 1 2 3 2 0 0 0 0 0 0 0 0 0 0 0 0 0 0 0 0 0 0 0 0 0 0 0
0 0 0 0 0 0 0 -0 0 0 0 0 0 0 1 1 1 1 1 1 0 0 0 0 0 0 0 0 0 0 0 0 0 0 0 0 0 0 0 0 0 0 0
0 0 0 0 0 0 0 -0 -0 -0 -0 0 0 0 0 1 1 1 0 0 0 0 0 0 0 0 0 0 0 0 0 0 0 0 0 0 0 0 0 0 0 0 0
0 0 0 0 0 0 0 -0 -0 -0 -0 0 -0 -0 0 0 1 1 0 0 0 0 0 0 0 0 0 0 0 0 0 0 0 0 0 0 0 0 0 0 0 0 0
0 0 0 0 0 0 0 -0 -0 -0 -0 -0 -0 -0 0 1 0 0 0 0 0 0 0 0 0 0 0 0 0 0 0 0 0 0 0 0 0 0 0 0 0 0 0
0 0 0 0 0 0 -0 -0 0 -0 -0 0 -0 -0 0 0 0 0 0 0 0 0 0 0 0 0 0 0 0 0 0 0 0 0 0 0 0 0 0 0 0 0 0
Wind_Speed_500mb
51 47 42 36 29 24 18 11 11 12 14 15 15 20 21 23 24 27 29 32 35 37 37 36 33 30 28 24 26 25 23 23 21 21 15 20 24 31 31 29 27 28 26
55 53 49 43 36 27 21 18 15 15 17 25 23 27 27 29 28 30 31 33 33 33 34 37 36 30 30 23 24 26 25 25 26 29 24 21 23 28 32 33 31 32 29
58 54 52 48 42 31 28 27 24 24 22 32 31 32 37 37 33 31 31 33 36 36 34 33 32 29 26 26 23 25 27 28 29 32 30 27 25 27 31 34 35 35 33
54 54 55 55 46 39 37 36 32 34 32 38 40 41 39 33 34 35 38 39 37 39 37 32 31 29 30 26 26 21 25 29 31 33 34 29 28 29 31 34 36 38 39
49 49 51 50 41 46 47 42 42 46 44 42 44 42 32 32 31 36 44 47 43 43 42 36 31 31 27 24 25 27 22 24 31 32 34 33 31 31 32 34 37 40 41
56 52 46 43 39 42 48 50 48 46 45 44 44 46 39 35 34 37 36 51 46 46 46 44 35 31 27 33 27 26 23 21 28 31 31 34 34 33 34 35 37 40 43
60 49 48 47 47 48 49 51 51 51 48 45 44 48 48 40 31 40 36 43 30 46 50 51 42 38 35 33 34 27 30 29 29 30 29 34 36 36 36 36 38 40 43
55 41 54 56 53 52 52 55 59 61 55 51 45 44 47 44 44 52 46 47 32 36 57 55 46 44 42 40 40 35 29 31 31 28 27 31 37 39 38 38 39 41 42
54 52 60 61 62 53 49 56 52 60 55 54 52 46 23 26 45 46 36 39 50 45 49 53 43 47 46 43 38 39 36 34 30 28 28 28 32 40 40 39 39 41 42
45 48 61 68 67 54 44 51 41 48 55 61 61 48 49 56 48 53 67 56 54 65 50 47 46 49 44 42 36 38 34 34 25 23 29 32 34 36 39 39 39 40 43
85 84 57 57 50 60 58 55 50 49 46 57 59 52 40 52 60 77 67 57 67 69 50 55 49 48 45 47 36 36 36 31 28 26 32 34 35 30 35 37 39 38 42
75 82 102 104 76 73 63 63 63 58 59 60 64 56 58 68 66 77 67 62 56 67 51 48 47 51 49 53 43 35 37 33 29 32 32 30 34 32 34 37 40 40 41
75 86 82 86 99 116 101 101 74 67 77 68 71 74 72 70 89 52 63 67 60 64 62 58 54 50 47 53 48 41 38 37 34 35 35 33 34 38 35 38 40 40 40
57 55 56 62 78 80 92 94 88 84 73 72 73 81 86 79 89 77 75 59 62 59 64 65 58 46 42 50 50 45 40 38 36 36 36 37 34 36 35 36 39 37 38
46 43 45 47 45 47 61 67 82 95 91 86 70 86 90 89 91 88 78 69 70 65 70 68 61 52 41 44 51 48 40 39 37 35 35 29 30 31 32 35 38 35 34
34 42 44 47 52 43 49 47 51 53 59 90 103 95 102 101 91 89 85 77 67 63 69 67 52 48 39 41 50 48 45 43 36 39 35 31 31 31 32 34 37 35 35
28 30 35 44 47 48 45 48 56 62 67 61 67 72 83 83 85 79 76 70 67 63 70 73 67 56 41 40 51 52 46 42 38 42 38 34 35 36 35 34 36 35 34
42 41 41 37 41 45 48 54 53 56 56 62 72 66 75 81 75 83 80 64 61 66 64 68 65 55 46 42 52 48 39 38 41 41 36 36 36 35 36 36 36 35 35
51 52 52 54 54 51 50 47 50 59 68 63 64 71 78 82 81 77 82 72 61 60 58 63 64 54 48 46 49 43 38 39 38 34 30 32 35 34 34 35 35 37 35
45 48 49 55 55 57 56 55 57 59 61 65 64 64 79 80 80 82 85 68 60 55 57 62 56 51 52 47 48 39 37 32 34 33 30 30 33 36 35 36 37 37 37
55 58 59 59 53 51 54 62 65 65 63 64 65 64 67 75 84 82 79 68 60 54 57 53 53 48 54 54 48 42 30 29 34 33 32 30 30 28 32 36 37 36 36
65 66 69 70 60 58 62 68 69 69 69 71 71 63 63 71 75 73 69 66 57 54 55 58 54 57 52 43 43 38 33 33 36 34 29 30 27 23 26 32 34 33 34
70 72 76 79 76 76 76 79 81 71 68 69 71 73 66 71 67 70 68 60 52 49 48 49 63 60 51 45 39 39 38 37 40 35 32 31 24 20 19 26 31 32 33
74 76 77 78 82 85 86 90 92 74 69 67 72 75 72 68 73 70 64 55 45 53 51 55 53 50 40 35 39 35 28 33 39 38 35 30 24 25 24 22 28 32 33
84 83 84 81 84 89 91 96 95 83 76 72 71 77 73 69 71 62 60 60 55 51 48 49 44 39 38 36 33 31 33 40 44 44 38 34 27 25 26 24 25 33 34
91 89 90 91 94 95 94 96 91 78 74 73 72 73 70 64 60 51 48 58 55 55 53 56 44 38 37 37 36 32 33 41 47 44 42 36 28 17 17 31 26 28 26
Wind_Direction_500mb
219 222 227 229 233 233 228 231 250 278 304 318 314 315 330 331 322 315 313 307 304 302 298 295 290 292 299 280 260 264 276 269 263 265 259 252 240 238 241 240 234 231 233
225 225 229 231 232 233 239 245 252 260 283 291 298 310 319 323 323 309 303 305 305 301 302 295 287 284 288 287 258 260 269 275 270 262 260 259 249 242 241 239 235 233 236
227 230 235 238 240 241 247 251 258 269 278 288 301 311 316 319 319 313 305 302 305 305 307 298 285 278 283 291 268 258 262 270 281 266 261 257 259 247 244 240 236 233 233
227 229 239 243 245 246 248 252 261 272 278 286 295 297 298 306 315 319 322 320 310 308 304 300 289 276 279 276 282 272 261 265 275 269 260 264 259 252 248 243 238 236 235
214 221 231 240 243 245 248 254 260 267 272 275 280 284 288 305 319 330 325 324 311 307 300 298 287 282 269 280 275 282 282 270 270 266 258 262 258 255 253 246 240 237 238
219 220 229 240 239 246 246 247 251 258 265 269 275 280 287 307 314 325 323 319 315 305 297 293 281 275 262 264 269 287 292 282 275 263 258 259 258 257 257 247 240 238 238
231 223 230 238 244 249 253 254 255 260 263 268 276 274 281 285 300 310 300 301 311 303 293 289 277 270 267 269 269 279 277 286 277 263 263 257 255 256 258 251 241 238 239
231 231 238 242 246 253 258 256 258 256 260 259 265 277 286 282 285 299 294 292 306 307 294 282 279 270 271 264 271 274 278 286 284 276 267 263 256 255 256 251 243 237 238
234 236 246 252 257 253 255 258 255 256 254 253 256 260 255 265 288 301 288 275 299 300 300 281 278 269 274 267 271 269 270 279 277 276 274 267 271 256 250 247 243 240 237
266 246 249 252 257 259 246 253 252 246 247 249 253 256 255 264 277 284 292 285 288 303 299 281 287 275 271 270 269 268 273 277 272 284 284 280 280 256 246 243 241 242 237
245 252 246 258 258 266 257 260 257 259 254 256 254 255 273 266 260 255 276 287 284 294 298 294 279 274 271 271 265 268 271 276 268 282 283 280 274 260 247 241 242 242 238
242 245 246 252 258 263 262 271 268 267 260 258 255 254 267 269 264 262 265 272 282 286 291 286 272 272 272 272 260 264 267 271 269 278 284 282 270 266 251 244 242 241 241
239 237 240 243 245 244 262 261 269 269 264 261 263 265 268 264 253 255 279 278 271 281 287 283 276 270 267 261 257 258 263 263 270 279 284 281 276 261 255 243 240 243 245
244 242 243 249 247 245 247 255 260 268 266 265 267 270 266 265 264 270 277 269 276 281 279 281 281 268 268 253 248 251 258 260 273 284 286 284 271 260 250 237 237 244 247
243 243 240 248 249 247 244 250 252 255 259 263 271 270 268 262 265 273 273 273 266 268 272 280 277 279 264 245 241 244 254 257 269 286 284 277 271 261 247 234 237 241 241
258 253 248 242 255 248 247 244 250 255 256 258 253 262 263 263 265 275 280 278 266 263 263 273 269 276 259 243 243 241 248 255 271 284 279 275 269 262 248 237 239 240 240
262 269 268 257 257 261 260 254 256 262 263 260 256 257 264 268 271 272 277 275 266 264 261 269 267 266 248 243 239 235 244 256 274 281 275 269 265 258 248 239 237 238 236
261 267 267 267 267 268 266 272 263 261 267 269 263 263 262 267 264 268 279 273 271 268 262 257 258 253 239 235 235 237 251 264 279 278 270 266 262 255 249 239 238 233 235
270 275 280 284 284 280 276 274 278 274 268 265 269 260 257 260 270 274 279 272 269 267 253 250 252 249 236 227 224 231 247 267 273 270 268 266 260 254 247 238 235 230 233
281 288 289 297 289 283 284 280 278 279 279 269 268 266 261 260 262 270 277 272 265 259 244 248 246 244 234 230 226 236 250 266 268 265 275 272 261 253 246 235 231 229 234
281 289 291 297 294 292 291 290 283 279 280 273 269 271 267 262 261 267 274 267 264 247 240 240 236 235 227 222 230 246 254 264 267 268 277 275 268 256 242 230 226 228 233
274 282 289 292 292 293 299 301 295 275 271 274 267 269 269 267 264 264 266 260 260 240 240 235 238 236 240 238 259 249 259 256 260 265 272 278 271 262 242 226 224 227 231
271 277 282 288 291 294 299 300 302 279 273 274 273 266 266 265 264 264 260 256 243 241 242 249 238 243 250 263 251 253 253 255 263 266 275 271 255 255 237 220 219 226 228
263 266 270 276 283 289 293 298 301 282 269 270 268 263 261 263 262 263 254 237 235 239 237 236 241 247 250 245 252 258 258 261 261 258 258 255 247 239 246 235 227 227 229
261 258 260 267 273 281 288 294 295 282 269 269 263 261 257 266 263 256 240 223 224 226 236 232 229 234 242 246 244 245 245 245 251 254 248 246 244 235 243 249 238 232 232
257 258 261 266 273 280 288 292 288 276 269 269 264 262 254 263 258 243 224 230 228 224 233 225 223 235 243 245 245 249 250 252 251 250 247 236 240 248 252 258 239 244 237
Wind_Speed_850mb
51 47 42 36 29 24 18 11 11 12 14 15 15 20 21 23 24 27 29 32 35 37 37 36 33 30 28 24 26 25 23 23 21 21 15 20 24 31 31 29 27 28 26
55 53 49 43 36 27 21 18 15 15 17 25 23 27 27 29 28 30 31 33 33 33 34 37 36 30 30 23 24 26 25 25 26 29 24 21 23 28 32 33 31 32 29
58 54 52 48 42 31 28 27 24 24 22 32 31 32 37 37 33 31 31 33 36 36 34 33 32 29 26 26 23 25 27 28 29 32 30 27 25 27 31 34 35 35 33
54 54 55 55 46 39 37 36 32 34 32 38 40 41 39 33 34 35 38 39 37 39 37 32 31 29 30 26 26 21 25 29 31 33 34 29 28 29 31 34 36 38 39
49 49 51 50 41 46 47 42 42 46 44 42 44 42 32 32 31 36 44 47 43 43 42 36 31 31 27 24 25 27 22 24 31 32 34 33 31 31 32 34 37 40 41
56 52 46 43 39 42 48 50 48 46 45 44 44 46 39 35 34 37 36 51 46 46 46 44 35 31 27 33 27 26 23 21 28 31 31 34 34 33 34 35 37 40 43
60 49 48 47 47 48 49 51 51 51 48 45 44 48 48 40 31 40 36 43 30 46 50 51 42 38 35 33 34 27 30 29 29 30 29 34 36 36 36 36 38 40 43
55 41 54 56 53 52 52 55 59 61 55 51 45 44 47 44 44 52 46 47 32 36 57 55 46 44 42 40 40 35 29 31 31 28 27 31 37 39 38 38 39 41 42
54 52 60 61 62 53 49 56 52 60 55 54 52 46 23 26 45 46 36 39 50 45 49 53 43 47 46 43 38 39 36 34 30 28 28 28 32 40 40 39 39 41 42
45 48 61 68 67 54 44 51 41 48 55 61 61 48 49 56 48 53 67 56 54 65 50 47 46 49 44 42 36 38 34 34 25 23 29 32 34 36 39 39 39 40 43
85 84 57 57 50 60 58 55 50 49 46 57 59 52 40 52 60 77 67 57 67 69 50 55 49 48 45 47 36 36 36 31 28 26 32 34 35 30 35 37 39 38 42
75 82 102 104 76 73 63 63 63 58 59 60 64 56 58 68 66 77 67 62 56 67 51 48 47 51 49 53 43 35 37 33 29 32 32 30 34 32 34 37 40 40 41
75 86 82 86 99 116 101 101 74 67 77 68 71 74 72 70 89 52 63 67 60 64 62 58 54 50 47 53 48 41 38 37 34 35 35 33 34 38 35 38 40 40 40
57 55 56 62 78 80 92 94 88 84 73 72 73 81 86 79 89 77 75 59 62 59 64 65 58 46 42 50 50 45 40 38 36 36 36 37 34 36 35 36 39 37 38
46 43 45 47 45 47 61 67 82 95 91 86 70 86 90 89 91 88 78 69 70 65 70 68 61 52 41 44 51 48 40 39 37 35 35 29 30 31 32 35 38 35 34
34 42 44 47 52 43 49 47 51 53 59 90 103 95 102 101 91 89 85 77 67 63 69 67 52 48 39 41 50 48 45 43 36 39 35 31 31 31 32 34 37 35 35
28 30 35 44 47 48 45 48 56 62 67 61 67 72 83 83 85 79 76 70 67 63 70 73 67 56 41 40 51 52 46 42 38 42 38 34 35 36 35 34 36 35 34
42 41 41 37 41 45 48 54 53 56 56 62 72 66 75 81 75 83 80 64 61 66 64 68 65 55 46 42 52 48 39 38 41 41 36 36 36 35 36 36 36 35 35
51 52 52 54 54 51 50 47 50 59 68 63 64 71 78 82 81 77 82 72 61 60 58 63 64 54 48 46 49 43 38 39 38 34 30 32 35 34 34 35 35 37 35
45 48 49 55 55 57 56 55 57 59 61 65 64 64 79 80 80 82 85 68 60 55 57 62 56 51 52 47 48 39 37 32 34 33 30 30 33 36 35 36 37 37 37
55 58 59 59 53 51 54 62 65 65 63 64 65 64 67 75 84 82 79 68 60 54 57 53 53 48 54 54 48 42 30 29 34 33 32 30 30 28 32 36 37 36 36
65 66 69 70 60 58 62 68 69 69 69 71 71 63 63 71 75 73 69 66 57 54 55 58 54 57 52 43 43 38 33 33 36 34 29 30 27 23 26 32 34 33 34
70 72 76 79 76 76 76 79 81 71 68 69 71 73 66 71 67 70 68 60 52 49 48 49 63 60 51 45 39 39 38 37 40 35 32 31 24 20 19 26 31 32 33
74 76 77 78 82 85 86 90 92 74 69 67 72 75 72 68 73 70 64 55 45 53 51 55 53 50 40 35 39 35 28 33 39 38 35 30 24 25 24 22 28 32 33
84 83 84 81 84 89 91 96 95 83 76 72 71 77 73 69 71 62 60 60 55 51 48 49 44 39 38 36 33 31 33 40 44 44 38 34 27 25 26 24 25 33 34
91 89 90 91 94 95 94 96 91 78 74 73 72 73 70 64 60 51 48 58 55 55 53 56 44 38 37 37 36 32 33 41 47 44 42 36 28 17 17 31 26 28 26
Wind_Direction_850mb
219 222 227 229 233 233 228 231 250 278 304 318 314 315 330 331 322 315 313 307 304 302 298 295 290 292 299 280 260 264 276 269 263 265 259 252 240 238 241 240 234 231 233
225 225 229 231 232 233 239 245 252 260 283 291 298 310 319 323 323 309 303 305 305 301 302 295 287 284 288 287 258 260 269 275 270 262 260 259 249 242 241 239 235 233 236
227 230 235 238 240 241 247 251 258 269 278 288 301 311 316 319 319 313 305 302 305 305 307 298 285 278 283 291 268 258 262 270 281 266 261 257 259 247 244 240 236 233 233
227 229 239 243 245 246 248 252 261 272 278 286 295 297 298 306 315 319 322 320 310 308 304 300 289 276 279 276 282 272 261 265 275 269 260 264 259 252 248 243 238 236 235
214 221 231 240 243 245 248 254 260 267 272 275 280 284 288 305 319 330 325 324 311 307 300 298 287 282 269 280 275 282 282 270 270 266 258 262 258 255 253 246 240 237 238
219 220 229 240 239 246 246 247 251 258 265 269 275 280 287 307 314 325 323 319 315 305 297 293 281 275 262 264 269 287 292 282 275 263 258 259 258 257 257 247 240 238 238
231 223 230 238 244 249 253 254 255 260 263 268 276 274 281 285 300 310 300 301 311 303 293 289 277 270 267 269 269 279 277 286 277 263 263 257 255 256 258 251 241 238 239
231 231 238 242 246 253 258 256 258 256 260 259 265 277 286 282 285 299 294 292 306 307 294 282 279 270 271 264 271 274 278 286 284 276 267 263 256 255 256 251 243 237 238
234 236 246 252 257 253 255 258 255 256 254 253 256 260 255 265 288 301 288 275 299 300 300 281 278 269 274 267 271 269 270 279 277 276 274 267 271 256 250 247 243 240 237
266 246 249 252 257 259 246 253 252 246 247 249 253 256 255 264 277 284 292 285 288 303 299 281 287 275 271 270 269 268 273 277 272 284 284 280 280 256 246 243 241 242 237
245 252 246 258 258 266 257 260 257 259 254 256 254 255 273 266 260 255 276 287 284 294 298 294 279 274 271 271 265 268 271 276 268 282 283 280 274 260 247 241 242 242 238
242 245 246 252 258 263 262 271 268 267 260 258 255 254 267 269 264 262 265 272 282 286 291 286 272 272 272 272 260 264 267 271 269 278 284 282 270 266 251 244 242 241 241
239 237 240 243 245 244 262 261 269 269 264 261 263 265 268 264 253 255 279 278 271 281 287 283 276 270 267 261 257 258 263 263 270 279 284 281 276 261 255 243 240 243 245
244 242 243 249 247 245 247 255 260 268 266 265 267 270 266 265 264 270 277 269 276 281 279 281 281 268 268 253 248 251 258 260 273 284 286 284 271 260 250 237 237 244 247
243 243 240 248 249 247 244 250 252 255 259 263 271 270 268 262 265 273 273 273 266 268 272 280 277 279 264 245 241 244 254 257 269 286 284 277 271 261 247 234 237 241 241
258 253 248 242 255 248 247 244 250 255 256 258 253 262 263 263 265 275 280 278 266 263 263 273 269 276 259 243 243 241 248 255 271 284 279 275 269 262 248 237 239 240 240
262 269 268 257 257 261 260 254 256 262 263 260 256 257 264 268 271 272 277 275 266 264 261 269 267 266 248 243 239 235 244 256 274 281 275 269 265 258 248 239 237 238 236
261 267 267 267 267 268 266 272 263 261 267 269 263 263 262 267 264 268 279 273 271 268 262 257 258 253 239 235 235 237 251 264 279 278 270 266 262 255 249 239 238 233 235
270 275 280 284 284 280 276 274 278 274 268 265 269 260 257 260 270 274 279 272 269 267 253 250 252 249 236 227 224 231 247 267 273 270 268 266 260 254 247 238 235 230 233
281 288 289 297 289 283 284 280 278 279 279 269 268 266 261 260 262 270 277 272 265 259 244 248 246 244 234 230 226 236 250 266 268 265 275 272 261 253 246 235 231 229 234
281 289 291 297 294 292 291 290 283 279 280 273 269 271 267 262 261 267 274 267 264 247 240 240 236 235 227 222 230 246 254 264 267 268 277 275 268 256 242 230 226 228 233
274 282 289 292 292 293 299 301 295 275 271 274 267 269 269 267 264 264 266 260 260 240 240 235 238 236 240 238 259 249 259 256 260 265 272 278 271 262 242 226 224 227 231
271 277 282 288 291 294 299 300 302 279 273 274 273 266 266 265 264 264 260 256 243 241 242 249 238 243 250 263 251 253 253 255 263 266 275 271 255 255 237 220 219 226 228
263 266 270 276 283 289 293 298 301 282 269 270 268 263 261 263 262 263 254 237 235 239 237 236 241 247 250 245 252 258 258 261 261 258 258 255 247 239 246 235 227 227 229
261 258 260 267 273 281 288 294 295 282 269 269 263 261 257 266 263 256 240 223 224 226 236 232 229 234 242 246 244 245 245 245 251 254 248 246 244 235 243 249 238 232 232
257 258 261 266 273 280 288 292 288 276 269 269 264 262 254 263 258 243 224 230 228 224 233 225 223 235 243 245 245 249 250 252 251 250 247 236 240 248 252 258 239 244 237